Regional Weather Roundup
Issued by NWS

Home | Current Version | Previous Version | Text Only | Print | Product List | Glossary Off
Versions: 1 2 3 4 5 6 7 8 9 10 11 12 13 14 15 16 17 18 19 20 21 22 23 24 25 26 27 28 29 30 31 32 33 34 35 36 37 38 39 40 41 42 43 44 45 46 47 48 49 50

000
ASUS43 KBIS 251010
RWRND
NORTH DAKOTA REGIONAL WEATHER ROUNDUP
NATIONAL WEATHER SERVICE EASTERN NORTH DAKOTA/GRAND FORKS ND
500 AM CDT WED APR 25 2018

  NOTE: "FAIR" INDICATES FEW OR NO CLOUDS BELOW 12,000 FEET WITH NO
  SIGNIFICANT WEATHER AND/OR OBSTRUCTIONS TO VISIBILITY.

NDZ001>003-009>011-017-251100-
...NORTHWEST NORTH DAKOTA...

CITY           SKY/WX    TMP DP  RH WIND       PRES   REMARKS
WILLISTON      FAIR      41  32  70 SW10      30.15F
MINOT          FAIR      44  30  57 SW12      30.15F
MINOT AFB      FAIR      43  30  61 SW14      30.12F
$$

NDZ018>021-031>035-040>046-251100-
...SOUTHWEST NORTH DAKOTA...

CITY           SKY/WX    TMP DP  RH WIND       PRES   REMARKS
BISMARCK       FAIR      32  27  81 CALM      30.26F
DICKINSON      FAIR      36  27  69 SW13      30.21F WCI  27
GARRISON         N/A     33  28  81 SW3       30.20F
HETTINGER      FAIR      29  23  78 SW7       30.27F WCI  22
$$

NDZ004>008-012>016-024-026-027-054-251100-
...NORTHEAST NORTH DAKOTA...

CITY           SKY/WX    TMP DP  RH WIND       PRES   REMARKS
GRAND FORKS    FAIR      31  29  92 S9        30.23F WCI  23
GRAND FORKS AF FAIR      34  27  75 S10       30.22F WCI  26
DEVILS LAKE    FAIR      35  27  72 SW12      30.20F WCI  27
$$

NDZ022-023-025-028>030-036>039-047>053-251100-
...SOUTHEAST NORTH DAKOTA...

CITY           SKY/WX    TMP DP  RH WIND       PRES   REMARKS
JAMESTOWN      FAIR      33  27  78 SW8       30.25F WCI  26
FARGO          FAIR      31  28  89 S6        30.27F WCI  25
WAHPETON       FAIR      30  27  86 W5        30.30S WCI  25
$$



USA.gov is the U.S. government's official web portal to all federal, state and local government web resources and services.